Regional Weather Roundup
Issued by NWS

Current Version | Previous Version | Text Only | Print | Product List | Glossary On
Versions: 1 2 3 4 5 6 7 8 9 10 11 12 13 14 15 16 17 18 19 20 21 22 23 24 25 26 27 28 29 30 31 32 33 34 35 36 37 38 39 40 41 42 43 44 45 46 47 48 49 50
000
ASUS44 KLIX 180910
RWRLA
LOUISIANA WEATHER ROUNDUP
NATIONAL WEATHER SERVICE NEW ORLEANS LA
400 AM CDT THU SEP 18 2014

NOTE: "FAIR" INDICATES FEW OR NO CLOUDS BELOW 12,000 FEET WITH NO
      SIGNIFICANT WEATHER AND/OR OBSTRUCTIONS TO VISIBILITY.
      SKY/WX - SKY CONDITION AND SIGNIFICANT WEATHER.
      TMP - AIR TEMPERATURE.    DP   - DEWPOINT TEMPERATURE.
      RH  - RELATIVE HUMIDITY.  PRES - PRESSURE.
      HX  - HEAT INDEX.         WCI  - WIND CHILL INDEX.

*  THESE STATIONS ARE NOT NWS OR FAA STATIONS AND ARE NOT UNDER
   NWS QUALITY CONTROL.

LAZ040-048-061>063-065-066-069-181000-
SOUTHEAST LOUISIANA

CITY           SKY/WX    TMP DP  RH WIND       PRES   REMARKS
N.O. AUDUBON     N/A     76  73  91 MISG        N/A
N.O. INTL ARPT PTCLDY    76  73  91 CALM      29.89S
N.O. LAKEFRONT PTCLDY    80  75  84 NW5       29.89F
N.O. DOWNTOWN* FAIR      79  70  73 CALM      29.89S
SLIDELL        PTCLDY    72  70  93 N3        29.89S
BATON ROUGE    MOCLDY    73  72  96 CALM      29.89S
BOOTHVILLE     PTCLDY    79  76  90 CALM      29.89F
BELLE CHASSE   PTCLDY    73  69  87 CALM      29.89S
BOGALUSA*      FOG       73  70  90 CALM      29.91S VSB 3/4
GALLIANO*      NOT AVBL
NEW ROADS*     FOG       71  70  98 CALM      29.90R VSB<1/4
GONZALES*      FAIR      73  73 100 CALM      29.89S FOG
HAMMOND*       PTCLDY    73  70  88 CALM      29.91R
HOUMA*         FOG      N/A N/A N/A CALM      29.89S VSB 1/2
PORT FOURCHON* SUNNY     79  75  89 N3        29.92R

$$

LAZ041-044-053-054-181000-
SOUTHWEST LOUISIANA

CITY           SKY/WX    TMP DP  RH WIND       PRES   REMARKS
LAKE CHARLES   FOG       75  74  96 CALM      29.88S VSB 1
LAFAYETTE      FOG       75  75 100 CALM      29.89S VSB 3/4
PATTERSON      CLOUDY    73  73 100 CALM      29.92R
SALT POINT       N/A     79  76  90 CALM      29.89S
NEW IBERIA     CLOUDY    76  74  93 CALM      29.90R
CHENAULT AIRPK NOT AVBL

$$

LAZ027-028-181000-
CENTRAL LOUISIANA

CITY           SKY/WX    TMP DP  RH WIND       PRES   REMARKS
FORT POLK      CLOUDY    73  72  96 CALM      29.89S
ALEXANDRIA INT MOCLDY    73  72  96 CALM      29.88S FOG
ALEXANDRIA     MOCLDY    72  70  93 CALM      29.89F

$$

LAZ001-002-181000-
NORTHWEST LOUISIANA

CITY           SKY/WX    TMP DP  RH WIND       PRES   REMARKS
SHREVEPORT     CLOUDY    74  71  91 SE3       29.88F
BARKSDALE AFB  CLOUDY    72  70  94 S2        29.89F
DTN SHREVEPORT CLOUDY    74  71  91 SW3       29.89F

$$

LAZ014-016-181000-
NORTHEAST LOUISIANA

CITY           SKY/WX    TMP DP  RH WIND       PRES   REMARKS
MONROE         CLOUDY    74  72  93 CALM      29.90S
TALLULAH       CLOUDY    72  70  93 CALM      29.89F

$$



USA.gov is the U.S. government's official web portal to all federal, state and local government web resources and services.